Portada
METAR-TAF:

METAR-TAF

Aeropuertos :

Acajutla, El Salvador

latitud: 13-34N, longitud: 089-50W, altitud: 15 m

Observación

El informe se hizo hace 6 horas y 53 minutos, a las 22:50 UTC
Viento 4 kt del sur
Temperatura 31°C
Humedad 63%
Presión 1010 hPa
Visibilidad 10 km o más
Nubes dispersas a una altura de 3300 ft
chaparrones en las proximidades

METAR: MSAC 112250Z 17004KT 9999 VCSH SCT033 31/23 Q1009 A2982

Hora: 23:43 (05:43 UTC)


TAF: falta

Observaciones y pronósticos meteorológicos de más de 4000 aeropuertos (mensajes METAR y TAF).

Los puntos amarillos y rojos representan las estaciones disponibles.

Ponga el ratón en el punto deseado para ver el nombre de la estación.

Haga clic para ver las observaciones y los pronósticos meteorológicos.

Para cambiar el mapa : haga clic en los botones verdes con una cruz de color negro para hacer un zoom, en el botón verde con un guión para alejar o en las flechas verdes para mapas adyacentes.


METAR-TAF: